Torna al catalogo

WESTFORD NEEDLES

AttivoPO
NORAD 21660·DEBRIS·🇺🇸 United States

Lanciato May 9, 1963 da Vandenberg Space Force Base

Loading…

Prossimi Passaggi (prossime 24 ore)

TLE

ObsoletoSource: Space-Track

Epoca: Aug 22, 2026, 00:36 UTC

1 21660U 63014FG  26234.02531104 -.00000015  00000-0 -22211-2 0  9990
2 21660  86.7466 252.8431 1390589 294.9360  72.8120  8.77259631 71474

Traccia WESTFORD NEEDLES in tempo reale con AllMySat

Download on the App Store